Time,TemperatureF,DewpointF,PressureIn,WindDirection,WindDirectionDegrees,WindSpeedMPH,WindSpeedGustMPH,Humidity,HourlyPrecipIn,Conditions,Clouds,dailyrainin,SoftwareType,DateUTC
2013-08-08 00:00:00,56.8,55.4,30.05,WSW,238,0.0,1.0,95,0.00,,,0.00,meteohub,2013-08-08 04:00:00,
2013-08-08 00:01:00,56.8,55.4,30.05,WSW,238,0.0,1.0,95,0.00,,,0.00,meteohub,2013-08-08 04:01:00,
2013-08-08 00:02:00,56.8,55.4,30.05,WSW,238,0.0,1.0,95,0.00,,,0.00,meteohub,2013-08-08 04:02:00,
2013-08-08 00:03:00,56.8,55.4,30.05,WSW,238,0.0,1.0,95,0.00,,,0.00,meteohub,2013-08-08 04:03:00,
2013-08-08 00:06:00,56.8,55.2,30.05,WSW,238,0.0,1.0,94,0.00,,,0.00,meteohub,2013-08-08 04:06:00,
2013-08-08 00:11:00,56.8,55.4,30.05,SSW,198,0.0,3.0,95,0.00,,,0.00,meteohub,2013-08-08 04:11:00,
2013-08-08 00:16:00,56.8,55.4,30.05,SSW,196,0.0,3.0,95,0.00,,,0.00,meteohub,2013-08-08 04:16:00,
2013-08-08 00:21:00,56.7,55.2,30.05,SSW,198,0.0,3.0,95,0.00,,,0.00,meteohub,2013-08-08 04:21:00,
2013-08-08 00:26:00,56.7,55.2,30.04,SSW,198,0.0,3.0,95,0.00,,,0.00,meteohub,2013-08-08 04:26:00,
2013-08-08 00:31:00,56.5,55.0,30.04,South,191,2.0,2.0,95,0.00,,,0.00,meteohub,2013-08-08 04:31:00,
2013-08-08 00:36:00,56.5,55.0,30.04,SSW,194,0.0,3.0,95,0.00,,,0.00,meteohub,2013-08-08 04:36:00,
2013-08-08 00:42:00,56.3,54.9,30.04,SSW,194,0.0,3.0,95,0.00,,,0.00,meteohub,2013-08-08 04:42:00,
2013-08-08 00:47:00,56.1,54.7,30.04,SSW,194,0.0,3.0,95,0.00,,,0.00,meteohub,2013-08-08 04:47:00,
2013-08-08 00:52:00,55.9,54.5,30.04,SSW,194,0.0,2.0,95,0.00,,,0.00,meteohub,2013-08-08 04:52:00,
2013-08-08 00:57:00,55.9,54.5,30.04,SSW,194,0.0,2.0,95,0.00,,,0.00,meteohub,2013-08-08 04:57:00,
2013-08-08 01:02:00,55.9,54.5,30.04,SSW,194,0.0,2.0,95,0.00,,,0.00,meteohub,2013-08-08 05:02:00,
2013-08-08 01:07:00,55.8,54.3,30.04,SSW,194,0.0,2.0,95,0.00,,,0.00,meteohub,2013-08-08 05:07:00,
2013-08-08 01:12:00,55.6,54.1,30.05,SSW,194,0.0,0.0,95,0.00,,,0.00,meteohub,2013-08-08 05:12:00,
2013-08-08 01:17:00,55.2,53.8,30.04,SSW,194,0.0,0.0,95,0.00,,,0.00,meteohub,2013-08-08 05:17:00,
2013-08-08 01:22:00,55.0,53.6,30.04,SSW,194,0.0,0.0,95,0.00,,,0.00,meteohub,2013-08-08 05:22:00,
2013-08-08 01:27:00,54.9,53.4,30.04,SSW,196,0.0,1.0,95,0.00,,,0.00,meteohub,2013-08-08 05:27:00,
2013-08-08 01:32:00,54.9,53.4,30.04,SSW,196,0.0,3.0,95,0.00,,,0.00,meteohub,2013-08-08 05:32:00,
2013-08-08 01:37:00,54.9,53.4,30.04,SSW,196,0.0,3.0,95,0.00,,,0.00,meteohub,2013-08-08 05:37:00,
2013-08-08 01:43:00,55.0,54.0,30.04,SSW,196,0.0,3.0,96,0.00,,,0.00,meteohub,2013-08-08 05:43:00,
2013-08-08 01:48:00,55.0,54.0,30.04,SSW,196,0.0,1.0,96,0.00,,,0.00,meteohub,2013-08-08 05:48:00,
2013-08-08 01:53:00,54.9,53.8,30.04,SSW,196,0.0,1.0,96,0.00,,,0.00,meteohub,2013-08-08 05:53:00,
2013-08-08 01:58:00,54.7,53.6,30.04,SSW,196,0.0,1.0,96,0.00,,,0.00,meteohub,2013-08-08 05:58:00,
2013-08-08 02:03:00,54.7,53.6,30.04,SSW,196,0.0,1.0,96,0.00,,,0.00,meteohub,2013-08-08 06:03:00,
2013-08-08 02:08:00,54.7,53.6,30.04,SSW,196,0.0,1.0,96,0.00,,,0.00,meteohub,2013-08-08 06:08:00,
2013-08-08 02:13:00,54.3,52.9,30.04,SSW,196,0.0,2.0,95,0.00,,,0.00,meteohub,2013-08-08 06:13:00,
2013-08-08 02:18:00,54.5,53.4,30.04,SSW,197,0.0,2.0,96,0.00,,,0.00,meteohub,2013-08-08 06:18:00,
2013-08-08 02:24:00,54.7,53.6,30.04,SSW,198,0.0,3.0,96,0.00,,,0.00,meteohub,2013-08-08 06:24:00,
2013-08-08 02:29:00,54.9,53.8,30.04,SSW,198,2.0,3.0,96,0.00,,,0.00,meteohub,2013-08-08 06:29:00,
2013-08-08 02:34:00,55.0,53.6,30.04,SSW,199,0.0,3.0,95,0.00,,,0.00,meteohub,2013-08-08 06:34:00,
2013-08-08 02:39:00,55.2,53.8,30.04,SSW,199,0.0,3.0,95,0.00,,,0.00,meteohub,2013-08-08 06:39:00,
2013-08-08 02:44:00,55.2,53.8,30.03,SSW,199,0.0,3.0,95,0.00,,,0.00,meteohub,2013-08-08 06:44:00,
2013-08-08 02:49:00,55.4,54.0,30.03,SSW,199,0.0,3.0,95,0.00,,,0.00,meteohub,2013-08-08 06:49:00,
2013-08-08 02:54:00,55.4,53.8,30.03,SSW,200,0.0,2.0,94,0.00,,,0.00,meteohub,2013-08-08 06:54:00,
2013-08-08 03:00:00,55.6,54.0,30.03,SSW,200,2.0,2.0,94,0.00,,,0.00,meteohub,2013-08-08 07:00:00,
2013-08-08 03:05:00,55.6,54.0,30.03,SSW,200,0.0,3.0,94,0.00,,,0.00,meteohub,2013-08-08 07:05:00,
2013-08-08 03:10:00,55.2,53.6,30.03,SSW,201,2.0,3.0,94,0.00,,,0.00,meteohub,2013-08-08 07:10:00,
2013-08-08 03:15:00,55.0,53.4,30.02,WSW,246,3.0,4.0,94,0.00,,,0.00,meteohub,2013-08-08 07:15:00,
2013-08-08 03:20:00,54.9,53.2,30.02,SW,216,2.0,5.0,94,0.00,,,0.00,meteohub,2013-08-08 07:20:00,
2013-08-08 03:25:00,54.9,53.2,30.02,SW,216,1.0,5.0,94,0.00,,,0.00,meteohub,2013-08-08 07:25:00,
2013-08-08 03:30:00,54.7,53.1,30.01,SSW,202,0.0,5.0,94,0.00,,,0.00,meteohub,2013-08-08 07:30:00,
2013-08-08 03:35:00,54.7,52.7,30.01,SSW,202,0.0,5.0,93,0.00,,,0.00,meteohub,2013-08-08 07:35:00,
2013-08-08 03:41:00,54.7,52.7,30.01,SSW,203,1.0,5.0,93,0.00,,,0.00,meteohub,2013-08-08 07:41:00,
2013-08-08 03:46:00,54.7,52.7,30.01,SSW,198,0.0,4.0,93,0.00,,,0.00,meteohub,2013-08-08 07:46:00,
2013-08-08 03:51:00,54.5,52.2,30.01,SSE,161,0.0,4.0,92,0.00,,,0.00,meteohub,2013-08-08 07:51:00,
2013-08-08 03:56:00,54.5,52.2,30.02,SW,227,0.0,3.0,92,0.00,,,0.00,meteohub,2013-08-08 07:56:00,
2013-08-08 04:01:00,54.7,52.3,30.02,SW,227,0.0,3.0,92,0.00,,,0.00,meteohub,2013-08-08 08:01:00,
2013-08-08 04:06:00,54.5,52.2,30.01,SW,227,0.0,3.0,92,0.00,,,0.00,meteohub,2013-08-08 08:06:00,
2013-08-08 04:11:00,54.3,52.3,30.01,SW,227,1.0,2.0,93,0.00,,,0.00,meteohub,2013-08-08 08:11:00,
2013-08-08 04:17:00,54.0,52.0,30.01,South,188,2.0,4.0,93,0.00,,,0.00,meteohub,2013-08-08 08:17:00,
2013-08-08 04:22:00,53.8,51.8,30.01,SSW,200,1.0,4.0,93,0.00,,,0.00,meteohub,2013-08-08 08:22:00,
2013-08-08 04:27:00,53.8,52.2,30.01,SSW,212,2.0,4.0,94,0.00,,,0.00,meteohub,2013-08-08 08:27:00,
2013-08-08 04:32:00,53.6,52.0,30.01,SSW,212,0.0,4.0,94,0.00,,,0.00,meteohub,2013-08-08 08:32:00,
2013-08-08 04:37:00,53.6,52.0,30.01,SSW,212,1.0,4.0,94,0.00,,,0.00,meteohub,2013-08-08 08:37:00,
2013-08-08 04:42:00,53.4,51.8,30.01,SSW,211,0.0,2.0,94,0.00,,,0.00,meteohub,2013-08-08 08:42:00,
2013-08-08 04:47:00,53.4,51.8,30.01,SSW,196,0.0,3.0,94,0.00,,,0.00,meteohub,2013-08-08 08:47:00,
2013-08-08 04:52:00,53.4,51.4,30.01,SSW,198,0.0,4.0,93,0.00,,,0.00,meteohub,2013-08-08 08:52:00,
2013-08-08 04:57:00,53.4,51.4,30.01,SSW,198,0.0,4.0,93,0.00,,,0.00,meteohub,2013-08-08 08:57:00,
2013-08-08 05:02:00,53.4,51.4,30.01,SE,136,0.0,4.0,93,0.00,,,0.00,meteohub,2013-08-08 09:02:00,
2013-08-08 05:07:00,53.4,51.4,30.00,SE,136,1.0,2.0,93,0.00,,,0.00,meteohub,2013-08-08 09:07:00,
2013-08-08 05:12:00,53.4,51.4,30.01,SE,139,0.0,3.0,93,0.00,,,0.00,meteohub,2013-08-08 09:12:00,
2013-08-08 05:17:00,53.6,51.6,30.01,SW,215,0.0,3.0,93,0.00,,,0.00,meteohub,2013-08-08 09:17:00,
2013-08-08 05:22:00,53.8,51.8,30.01,SSW,211,0.0,3.0,93,0.00,,,0.00,meteohub,2013-08-08 09:22:00,
2013-08-08 05:27:00,53.8,51.8,30.01,SSW,211,0.0,3.0,93,0.00,,,0.00,meteohub,2013-08-08 09:27:00,
2013-08-08 05:33:00,53.8,51.8,30.01,SSW,210,0.0,3.0,93,0.00,,,0.00,meteohub,2013-08-08 09:33:00,
2013-08-08 05:38:00,54.0,52.0,30.01,SSW,210,0.0,2.0,93,0.00,,,0.00,meteohub,2013-08-08 09:38:00,
2013-08-08 05:43:00,54.0,52.0,30.01,South,185,0.0,2.0,93,0.00,,,0.00,meteohub,2013-08-08 09:43:00,
2013-08-08 05:48:00,54.0,52.0,30.01,SSW,195,0.0,3.0,93,0.00,,,0.00,meteohub,2013-08-08 09:48:00,
2013-08-08 05:53:00,54.1,52.5,30.01,ESE,123,0.0,3.0,94,0.00,,,0.00,meteohub,2013-08-08 09:53:00,
2013-08-08 05:58:00,54.3,52.7,30.00,SSE,167,0.0,3.0,94,0.00,,,0.00,meteohub,2013-08-08 09:58:00,
2013-08-08 06:03:00,54.5,52.9,30.00,SSW,213,1.0,3.0,94,0.00,,,0.00,meteohub,2013-08-08 10:03:00,
2013-08-08 06:09:00,54.7,53.1,30.00,SW,232,0.0,5.0,94,0.00,,,0.00,meteohub,2013-08-08 10:09:00,
2013-08-08 06:14:00,54.9,53.2,30.00,SSW,199,4.0,5.0,94,0.00,,,0.00,meteohub,2013-08-08 10:14:00,
2013-08-08 06:19:00,55.0,53.1,30.00,SSW,200,1.0,5.0,93,0.00,,,0.00,meteohub,2013-08-08 10:19:00,
2013-08-08 06:24:00,55.2,53.2,30.00,SSE,148,0.0,4.0,93,0.00,,,0.00,meteohub,2013-08-08 10:24:00,
2013-08-08 06:29:00,55.6,53.6,30.01,SE,133,1.0,4.0,93,0.00,,,0.00,meteohub,2013-08-08 10:29:00,
2013-08-08 06:34:00,55.8,53.8,30.01,SW,225,0.0,5.0,93,0.00,,,0.00,meteohub,2013-08-08 10:34:00,
2013-08-08 06:39:00,55.9,54.0,30.00,SW,225,0.0,5.0,93,0.00,,,0.00,meteohub,2013-08-08 10:39:00,
2013-08-08 06:44:00,55.9,53.6,30.01,SW,217,2.0,5.0,92,0.00,,,0.00,meteohub,2013-08-08 10:44:00,
2013-08-08 06:50:00,56.1,53.8,30.00,South,188,0.0,5.0,92,0.00,,,0.00,meteohub,2013-08-08 10:50:00,
2013-08-08 06:55:00,56.5,54.1,30.00,SSE,149,1.0,7.0,92,0.00,,,0.00,meteohub,2013-08-08 10:55:00,
2013-08-08 07:00:00,56.7,54.3,30.00,ESE,111,0.0,7.0,92,0.00,,,0.00,meteohub,2013-08-08 11:00:00,
2013-08-08 07:05:00,57.0,54.5,30.00,ESE,117,2.0,7.0,91,0.00,,,0.00,meteohub,2013-08-08 11:05:00,
2013-08-08 07:10:00,57.0,54.5,30.00,East,101,3.0,7.0,91,0.00,,,0.00,meteohub,2013-08-08 11:10:00,
2013-08-08 07:15:00,57.0,54.5,30.00,SSW,204,3.0,7.0,91,0.00,,,0.00,meteohub,2013-08-08 11:15:00,
2013-08-08 07:20:00,56.8,54.3,30.01,South,182,0.0,8.0,91,0.00,,,0.00,meteohub,2013-08-08 11:20:00,
2013-08-08 07:25:00,56.8,54.3,30.01,SE,142,0.0,9.0,91,0.00,,,0.00,meteohub,2013-08-08 11:25:00,
2013-08-08 07:31:00,56.8,54.5,30.01,SW,215,5.0,9.0,92,0.00,,,0.00,meteohub,2013-08-08 11:31:00,
2013-08-08 07:36:00,56.8,54.3,30.01,SSW,202,0.0,7.0,91,0.00,,,0.00,meteohub,2013-08-08 11:36:00,
2013-08-08 07:41:00,57.0,54.7,30.01,ESE,115,3.0,7.0,92,0.00,,,0.00,meteohub,2013-08-08 11:41:00,
2013-08-08 07:46:00,57.0,54.5,30.01,ESE,116,3.0,6.0,91,0.00,,,0.00,meteohub,2013-08-08 11:46:00,
2013-08-08 07:51:00,57.0,54.5,30.01,ESE,105,0.0,8.0,91,0.00,,,0.00,meteohub,2013-08-08 11:51:00,
2013-08-08 07:56:00,57.2,54.7,30.02,ESE,107,0.0,8.0,91,0.00,,,0.00,meteohub,2013-08-08 11:56:00,
2013-08-08 08:01:00,57.2,54.7,30.02,ESE,109,0.0,8.0,91,0.00,,,0.00,meteohub,2013-08-08 12:01:00,
2013-08-08 08:07:00,57.4,55.0,30.03,SSW,206,1.0,3.0,92,0.00,,,0.00,meteohub,2013-08-08 12:07:00,
2013-08-08 08:12:00,57.2,54.9,30.04,West,262,4.0,4.0,92,0.00,,,0.00,meteohub,2013-08-08 12:12:00,
2013-08-08 08:17:00,57.0,55.0,30.04,West,277,0.0,5.0,93,0.01,,,0.01,meteohub,2013-08-08 12:17:00,
2013-08-08 08:22:00,56.8,54.9,30.03,SW,217,1.0,5.0,93,0.03,,,0.03,meteohub,2013-08-08 12:22:00,
2013-08-08 08:27:00,56.7,55.0,30.03,SE,142,0.0,5.0,94,0.08,,,0.08,meteohub,2013-08-08 12:27:00,
2013-08-08 08:32:00,56.7,55.2,30.02,SE,142,0.0,3.0,95,0.13,,,0.13,meteohub,2013-08-08 12:32:00,
2013-08-08 08:37:00,56.5,55.0,30.02,SE,142,0.0,2.0,95,0.15,,,0.15,meteohub,2013-08-08 12:37:00,
2013-08-08 08:42:00,56.5,55.0,30.02,SE,142,0.0,2.0,95,0.17,,,0.17,meteohub,2013-08-08 12:42:00,
2013-08-08 08:47:00,56.5,55.4,30.01,SE,128,1.0,2.0,96,0.19,,,0.19,meteohub,2013-08-08 12:47:00,
2013-08-08 08:52:00,56.1,55.0,30.01,SE,134,2.0,3.0,96,0.20,,,0.20,meteohub,2013-08-08 12:52:00,
2013-08-08 08:57:00,56.1,55.2,30.00,SE,134,1.0,4.0,97,0.21,,,0.21,meteohub,2013-08-08 12:57:00,
2013-08-08 09:02:00,56.3,55.4,30.00,SSW,204,0.0,4.0,97,0.23,,,0.23,meteohub,2013-08-08 13:02:00,
2013-08-08 09:07:00,56.5,55.6,30.00,South,171,0.0,4.0,97,0.23,,,0.23,meteohub,2013-08-08 13:07:00,
2013-08-08 09:12:00,56.7,55.8,30.00,South,178,0.0,4.0,97,0.23,,,0.24,meteohub,2013-08-08 13:12:00,
2013-08-08 09:17:00,56.8,55.9,30.00,ESE,119,2.0,3.0,97,0.23,,,0.25,meteohub,2013-08-08 13:17:00,
2013-08-08 09:22:00,56.8,55.9,30.00,ESE,117,2.0,5.0,97,0.20,,,0.26,meteohub,2013-08-08 13:22:00,
2013-08-08 09:27:00,57.0,56.5,30.00,ESE,121,0.0,5.0,98,0.17,,,0.26,meteohub,2013-08-08 13:27:00,
2013-08-08 09:32:00,57.4,56.8,29.99,SE,128,4.0,5.0,98,0.12,,,0.26,meteohub,2013-08-08 13:32:00,
2013-08-08 09:37:00,57.7,57.2,29.99,SSE,149,3.0,8.0,98,0.11,,,0.27,meteohub,2013-08-08 13:37:00,
2013-08-08 09:42:00,57.9,57.4,29.98,ESE,121,1.0,9.0,98,0.09,,,0.27,meteohub,2013-08-08 13:42:00,
2013-08-08 09:47:00,58.1,57.6,29.98,SE,127,4.0,9.0,98,0.08,,,0.27,meteohub,2013-08-08 13:47:00,
2013-08-08 09:53:00,58.6,58.1,29.99,South,169,1.0,9.0,98,0.07,,,0.27,meteohub,2013-08-08 13:53:00,
2013-08-08 09:58:00,59.0,58.5,29.99,SSW,193,1.0,9.0,98,0.05,,,0.27,meteohub,2013-08-08 13:58:00,
2013-08-08 10:03:00,59.2,58.3,29.99,SSE,160,4.0,9.0,97,0.04,,,0.27,meteohub,2013-08-08 14:03:00,
2013-08-08 10:08:00,59.2,58.3,29.99,ESE,117,4.0,9.0,97,0.03,,,0.27,meteohub,2013-08-08 14:08:00,
2013-08-08 10:13:00,59.2,58.3,29.99,SW,214,2.0,7.0,97,0.03,,,0.27,meteohub,2013-08-08 14:13:00,
2013-08-08 10:18:00,59.4,58.3,29.99,SW,215,5.0,9.0,96,0.02,,,0.27,meteohub,2013-08-08 14:18:00,
2013-08-08 10:23:00,59.5,58.5,29.99,SSE,167,2.0,9.0,96,0.01,,,0.27,meteohub,2013-08-08 14:23:00,
2013-08-08 10:28:00,59.7,58.6,29.99,SSW,212,3.0,9.0,96,0.01,,,0.27,meteohub,2013-08-08 14:28:00,
2013-08-08 10:34:00,59.7,58.6,29.99,SSW,192,1.0,9.0,96,0.01,,,0.27,meteohub,2013-08-08 14:34:00,
2013-08-08 10:39:00,59.9,58.8,29.99,SSW,202,2.0,8.0,96,0.00,,,0.27,meteohub,2013-08-08 14:39:00,
2013-08-08 10:44:00,59.9,58.8,29.99,SW,219,1.0,8.0,96,0.00,,,0.27,meteohub,2013-08-08 14:44:00,
2013-08-08 10:49:00,59.9,58.8,29.99,ESE,123,1.0,5.0,96,0.00,,,0.27,meteohub,2013-08-08 14:49:00,
2013-08-08 10:54:00,60.1,59.0,29.98,ESE,116,4.0,4.0,96,0.00,,,0.27,meteohub,2013-08-08 14:54:00,
2013-08-08 10:59:00,60.3,59.2,29.98,SSW,209,5.0,5.0,96,0.00,,,0.27,meteohub,2013-08-08 14:59:00,
2013-08-08 11:04:00,60.4,59.4,29.98,WSW,240,0.0,7.0,96,0.00,,,0.27,meteohub,2013-08-08 15:04:00,
2013-08-08 11:10:00,60.6,59.2,29.98,SW,227,8.0,8.0,95,0.00,,,0.27,meteohub,2013-08-08 15:10:00,
2013-08-08 11:15:00,60.8,59.0,29.98,SSE,157,0.0,8.0,94,0.00,,,0.27,meteohub,2013-08-08 15:15:00,
2013-08-08 11:20:00,61.0,59.2,29.98,SSE,161,2.0,8.0,94,0.00,,,0.27,meteohub,2013-08-08 15:20:00,
2013-08-08 11:25:00,61.2,59.4,29.98,East,101,1.0,8.0,94,0.00,,,0.27,meteohub,2013-08-08 15:25:00,
2013-08-08 11:30:00,61.2,59.2,29.98,NW,321,1.0,8.0,93,0.00,,,0.27,meteohub,2013-08-08 15:30:00,
2013-08-08 11:35:00,61.3,59.4,29.97,SW,233,3.0,12.0,93,0.00,,,0.27,meteohub,2013-08-08 15:35:00,
2013-08-08 11:41:00,61.5,59.5,29.98,SW,234,7.0,12.0,93,0.00,,,0.27,meteohub,2013-08-08 15:41:00,
2013-08-08 11:46:00,61.5,59.2,29.98,SSE,165,4.0,13.0,92,0.00,,,0.27,meteohub,2013-08-08 15:46:00,
2013-08-08 11:51:00,61.3,59.4,29.97,East,80,3.0,13.0,93,0.00,,,0.27,meteohub,2013-08-08 15:51:00,
2013-08-08 11:56:00,61.3,59.4,29.98,SE,128,2.0,13.0,93,0.00,,,0.27,meteohub,2013-08-08 15:56:00,
2013-08-08 12:01:00,61.3,59.4,29.98,ESE,123,2.0,8.0,93,0.00,,,0.27,meteohub,2013-08-08 16:01:00,
2013-08-08 12:06:00,61.2,58.8,29.97,South,179,2.0,9.0,92,0.00,,,0.27,meteohub,2013-08-08 16:06:00,
2013-08-08 12:11:00,61.3,59.0,29.97,WSW,244,3.0,10.0,92,0.00,,,0.27,meteohub,2013-08-08 16:11:00,
2013-08-08 12:16:00,61.2,58.8,29.97,SW,217,3.0,11.0,92,0.00,,,0.27,meteohub,2013-08-08 16:16:00,
2013-08-08 12:22:00,61.3,59.0,29.97,ESE,113,2.0,11.0,92,0.00,,,0.27,meteohub,2013-08-08 16:22:00,
2013-08-08 12:27:00,61.3,59.0,29.97,SSW,211,0.0,11.0,92,0.00,,,0.27,meteohub,2013-08-08 16:27:00,
2013-08-08 12:32:00,61.3,59.4,29.97,SE,130,0.0,8.0,93,0.00,,,0.27,meteohub,2013-08-08 16:32:00,
2013-08-08 12:37:00,61.2,58.8,29.97,South,181,2.0,8.0,92,0.00,,,0.27,meteohub,2013-08-08 16:37:00,
2013-08-08 12:42:00,61.2,58.8,29.97,South,181,0.0,11.0,92,0.00,,,0.27,meteohub,2013-08-08 16:42:00,
2013-08-08 12:47:00,61.2,58.8,29.97,SE,138,2.0,11.0,92,0.00,,,0.27,meteohub,2013-08-08 16:47:00,
2013-08-08 12:52:00,61.2,58.8,29.97,SSW,197,4.0,10.0,92,0.00,,,0.27,meteohub,2013-08-08 16:52:00,
2013-08-08 12:58:00,61.2,59.2,29.97,East,94,7.0,12.0,93,0.00,,,0.27,meteohub,2013-08-08 16:58:00,
2013-08-08 13:03:00,61.2,58.8,29.97,SSW,212,2.0,12.0,92,0.00,,,0.27,meteohub,2013-08-08 17:03:00,
2013-08-08 13:08:00,61.3,59.0,29.97,South,190,4.0,12.0,92,0.00,,,0.27,meteohub,2013-08-08 17:08:00,
2013-08-08 13:13:00,61.3,59.0,29.97,SSW,196,2.0,10.0,92,0.00,,,0.27,meteohub,2013-08-08 17:13:00,
2013-08-08 13:18:00,61.3,59.0,29.97,SSE,160,0.0,10.0,92,0.00,,,0.27,meteohub,2013-08-08 17:18:00,
2013-08-08 13:23:00,61.2,59.2,29.98,East,98,0.0,10.0,93,0.00,,,0.27,meteohub,2013-08-08 17:23:00,
2013-08-08 13:28:00,61.2,59.2,29.97,South,182,5.0,12.0,93,0.00,,,0.27,meteohub,2013-08-08 17:28:00,
2013-08-08 13:33:00,61.0,59.0,29.97,ESE,122,3.0,12.0,93,0.00,,,0.27,meteohub,2013-08-08 17:33:00,
2013-08-08 13:39:00,61.0,59.0,29.97,SSE,168,0.0,12.0,93,0.00,,,0.27,meteohub,2013-08-08 17:39:00,
2013-08-08 13:44:00,61.0,59.0,29.98,ESE,114,3.0,10.0,93,0.00,,,0.27,meteohub,2013-08-08 17:44:00,
2013-08-08 13:49:00,61.2,59.2,29.97,SW,215,5.0,10.0,93,0.00,,,0.27,meteohub,2013-08-08 17:49:00,
2013-08-08 13:54:00,61.3,59.5,29.97,SSE,160,3.0,9.0,94,0.00,,,0.27,meteohub,2013-08-08 17:54:00,
2013-08-08 13:59:00,61.3,59.4,29.98,South,185,0.0,7.0,93,0.00,,,0.27,meteohub,2013-08-08 17:59:00,
2013-08-08 14:04:00,61.5,59.5,29.97,East,98,5.0,7.0,93,0.00,,,0.27,meteohub,2013-08-08 18:04:00,
2013-08-08 14:09:00,61.7,59.7,29.97,SSE,163,6.0,7.0,93,0.00,,,0.27,meteohub,2013-08-08 18:09:00,
2013-08-08 14:15:00,61.9,59.9,29.97,SSW,201,6.0,7.0,93,0.00,,,0.27,meteohub,2013-08-08 18:15:00,
2013-08-08 14:20:00,61.9,59.9,29.97,SSW,196,1.0,10.0,93,0.00,,,0.27,meteohub,2013-08-08 18:20:00,
2013-08-08 14:25:00,62.1,60.1,29.97,WSW,244,2.0,9.0,93,0.00,,,0.27,meteohub,2013-08-08 18:25:00,
2013-08-08 14:30:00,62.2,59.9,29.97,SSW,207,3.0,7.0,92,0.00,,,0.27,meteohub,2013-08-08 18:30:00,
2013-08-08 14:35:00,62.2,59.9,29.97,SSW,208,2.0,8.0,92,0.00,,,0.27,meteohub,2013-08-08 18:35:00,
2013-08-08 14:40:00,62.4,60.1,29.97,ESE,117,5.0,8.0,92,0.00,,,0.27,meteohub,2013-08-08 18:40:00,
2013-08-08 14:45:00,62.6,60.3,29.97,SE,125,4.0,8.0,92,0.00,,,0.27,meteohub,2013-08-08 18:45:00,
2013-08-08 14:51:00,63.0,60.6,29.97,South,190,0.0,7.0,92,0.00,,,0.27,meteohub,2013-08-08 18:51:00,
2013-08-08 14:56:00,63.1,60.8,29.97,SW,236,3.0,7.0,92,0.00,,,0.27,meteohub,2013-08-08 18:56:00,
2013-08-08 15:01:00,63.3,60.6,29.97,South,186,5.0,10.0,91,0.00,,,0.27,meteohub,2013-08-08 19:01:00,
2013-08-08 15:06:00,63.3,60.6,29.97,SSW,193,3.0,12.0,91,0.00,,,0.27,meteohub,2013-08-08 19:06:00,
2013-08-08 15:11:00,63.5,60.8,29.97,South,176,1.0,12.0,91,0.00,,,0.27,meteohub,2013-08-08 19:11:00,
2013-08-08 15:16:00,63.7,61.0,29.97,South,169,1.0,9.0,91,0.00,,,0.27,meteohub,2013-08-08 19:16:00,
2013-08-08 15:21:00,63.7,61.0,29.97,SSW,192,2.0,9.0,91,0.00,,,0.27,meteohub,2013-08-08 19:21:00,
2013-08-08 15:26:00,63.7,61.0,29.97,SW,215,2.0,9.0,91,0.00,,,0.27,meteohub,2013-08-08 19:26:00,
2013-08-08 15:32:00,63.9,61.2,29.96,South,178,0.0,7.0,91,0.00,,,0.27,meteohub,2013-08-08 19:32:00,
2013-08-08 15:37:00,64.0,61.3,29.96,SE,128,0.0,7.0,91,0.00,,,0.27,meteohub,2013-08-08 19:37:00,
2013-08-08 15:42:00,64.2,61.5,29.96,SE,128,6.0,7.0,91,0.00,,,0.27,meteohub,2013-08-08 19:42:00,
2013-08-08 15:47:00,64.2,61.5,29.96,WSW,254,2.0,8.0,91,0.00,,,0.27,meteohub,2013-08-08 19:47:00,
2013-08-08 15:52:00,64.4,61.3,29.96,SSW,198,3.0,8.0,90,0.00,,,0.27,meteohub,2013-08-08 19:52:00,
2013-08-08 15:57:00,64.2,61.2,29.96,SSE,148,0.0,8.0,90,0.00,,,0.27,meteohub,2013-08-08 19:57:00,
2013-08-08 16:02:00,64.4,61.3,29.96,East,99,2.0,8.0,90,0.00,,,0.27,meteohub,2013-08-08 20:02:00,
2013-08-08 16:07:00,64.6,61.5,29.96,SSE,154,5.0,8.0,90,0.00,,,0.27,meteohub,2013-08-08 20:07:00,
2013-08-08 16:12:00,64.6,61.5,29.96,SSE,163,3.0,8.0,90,0.00,,,0.27,meteohub,2013-08-08 20:12:00,
2013-08-08 16:17:00,64.6,61.5,29.96,SSW,195,0.0,9.0,90,0.00,,,0.27,meteohub,2013-08-08 20:17:00,
2013-08-08 16:22:00,64.6,61.5,29.96,South,179,3.0,9.0,90,0.00,,,0.27,meteohub,2013-08-08 20:22:00,
2013-08-08 16:27:00,64.6,61.5,29.96,ESE,106,0.0,9.0,90,0.00,,,0.27,meteohub,2013-08-08 20:27:00,
2013-08-08 16:33:00,64.6,61.5,29.97,SE,129,7.0,7.0,90,0.00,,,0.27,meteohub,2013-08-08 20:33:00,
2013-08-08 16:38:00,64.4,61.3,29.96,SSE,153,0.0,9.0,90,0.00,,,0.27,meteohub,2013-08-08 20:38:00,
2013-08-08 16:43:00,64.4,61.3,29.97,ESE,121,1.0,9.0,90,0.00,,,0.27,meteohub,2013-08-08 20:43:00,
2013-08-08 16:48:00,64.6,61.5,29.97,SW,215,0.0,9.0,90,0.00,,,0.27,meteohub,2013-08-08 20:48:00,
2013-08-08 16:53:00,64.6,61.5,29.97,South,186,4.0,8.0,90,0.00,,,0.27,meteohub,2013-08-08 20:53:00,
2013-08-08 16:58:00,64.6,61.5,29.96,South,176,2.0,7.0,90,0.00,,,0.27,meteohub,2013-08-08 20:58:00,
2013-08-08 17:03:00,64.6,61.5,29.96,SSE,159,2.0,7.0,90,0.00,,,0.27,meteohub,2013-08-08 21:03:00,
2013-08-08 17:11:00,64.6,61.9,29.96,ESE,107,1.0,7.0,91,0.00,,,0.27,meteohub,2013-08-08 21:11:00,
2013-08-08 17:17:00,64.6,61.5,29.96,SE,128,3.0,5.0,90,0.00,,,0.27,meteohub,2013-08-08 21:17:00,
2013-08-08 17:22:00,64.8,61.7,29.96,SSE,151,1.0,9.0,90,0.00,,,0.27,meteohub,2013-08-08 21:22:00,
2013-08-08 17:27:00,64.8,61.7,29.96,SSW,199,1.0,9.0,90,0.00,,,0.27,meteohub,2013-08-08 21:27:00,
2013-08-08 17:32:00,64.8,61.7,29.96,SSW,197,2.0,9.0,90,0.00,,,0.27,meteohub,2013-08-08 21:32:00,
2013-08-08 17:37:00,64.8,61.7,29.97,South,180,1.0,7.0,90,0.00,,,0.27,meteohub,2013-08-08 21:37:00,
2013-08-08 17:42:00,64.8,61.7,29.96,SSW,196,2.0,9.0,90,0.00,,,0.27,meteohub,2013-08-08 21:42:00,
2013-08-08 17:47:00,64.8,61.7,29.97,SE,146,2.0,7.0,90,0.00,,,0.27,meteohub,2013-08-08 21:47:00,
2013-08-08 17:52:00,64.8,61.7,29.97,SE,128,3.0,7.0,90,0.00,,,0.27,meteohub,2013-08-08 21:52:00,
2013-08-08 17:57:00,64.8,62.1,29.97,South,183,0.0,7.0,91,0.00,,,0.27,meteohub,2013-08-08 21:57:00,
2013-08-08 18:03:00,64.8,62.1,29.98,ESE,105,4.0,7.0,91,0.00,,,0.27,meteohub,2013-08-08 22:03:00,
2013-08-08 18:08:00,64.9,62.2,29.97,SE,128,0.0,7.0,91,0.00,,,0.27,meteohub,2013-08-08 22:08:00,
2013-08-08 18:14:00,64.9,61.9,29.97,South,182,3.0,7.0,90,0.00,,,0.27,meteohub,2013-08-08 22:14:00,
2013-08-08 18:21:00,64.9,62.2,29.97,ESE,107,3.0,8.0,91,0.00,,,0.27,meteohub,2013-08-08 22:21:00,
2013-08-08 18:26:00,64.9,61.9,29.97,South,179,2.0,8.0,90,0.00,,,0.27,meteohub,2013-08-08 22:26:00,
2013-08-08 18:32:00,64.9,62.2,29.98,SE,132,0.0,5.0,91,0.00,,,0.27,meteohub,2013-08-08 22:32:00,
2013-08-08 18:37:00,64.9,62.2,29.97,SSW,197,0.0,5.0,91,0.00,,,0.27,meteohub,2013-08-08 22:37:00,
2013-08-08 18:43:00,64.9,62.2,29.97,SE,144,1.0,5.0,91,0.00,,,0.27,meteohub,2013-08-08 22:43:00,
2013-08-08 18:48:00,64.9,62.2,29.97,SSE,166,1.0,5.0,91,0.00,,,0.27,meteohub,2013-08-08 22:48:00,
2013-08-08 18:55:00,64.9,62.2,29.97,ESE,119,0.0,4.0,91,0.00,,,0.27,meteohub,2013-08-08 22:55:00,
2013-08-08 19:00:00,64.9,62.2,29.97,ESE,109,0.0,4.0,91,0.00,,,0.27,meteohub,2013-08-08 23:00:00,
2013-08-08 19:05:00,64.8,62.1,29.97,ESE,118,1.0,5.0,91,0.00,,,0.27,meteohub,2013-08-08 23:05:00,
2013-08-08 19:12:00,64.8,62.1,29.97,SE,130,4.0,4.0,91,0.00,,,0.27,meteohub,2013-08-08 23:12:00,
2013-08-08 19:17:00,64.6,62.2,29.97,ESE,123,1.0,6.0,92,0.00,,,0.27,meteohub,2013-08-08 23:17:00,
2013-08-08 19:22:00,64.6,62.2,29.97,SE,135,0.0,6.0,92,0.00,,,0.27,meteohub,2013-08-08 23:22:00,
2013-08-08 19:27:00,64.6,62.2,29.97,South,170,2.0,6.0,92,0.00,,,0.27,meteohub,2013-08-08 23:27:00,
2013-08-08 19:32:00,64.2,61.9,29.97,ESE,117,0.0,5.0,92,0.00,,,0.27,meteohub,2013-08-08 23:32:00,
2013-08-08 19:37:00,64.2,61.9,29.97,SE,133,3.0,5.0,92,0.00,,,0.27,meteohub,2013-08-08 23:37:00,
2013-08-08 19:44:00,64.2,61.9,29.97,ESE,113,1.0,7.0,92,0.00,,,0.27,meteohub,2013-08-08 23:44:00,
2013-08-08 19:50:00,64.2,61.9,29.97,SE,143,0.0,7.0,92,0.00,,,0.27,meteohub,2013-08-08 23:50:00,
2013-08-08 19:57:00,64.0,62.1,29.98,South,171,0.0,8.0,93,0.00,,,0.27,meteohub,2013-08-08 23:57:00,
2013-08-08 20:02:00,64.0,62.1,29.98,SE,138,0.0,4.0,93,0.00,,,0.27,meteohub,2013-08-09 00:02:00,
2013-08-08 20:07:00,64.2,62.2,29.98,SE,133,2.0,5.0,93,0.00,,,0.00,meteohub,2013-08-09 00:07:00,
2013-08-08 20:12:00,64.0,62.1,29.98,SSW,196,1.0,6.0,93,0.00,,,0.00,meteohub,2013-08-09 00:12:00,
2013-08-08 20:17:00,64.0,62.1,29.98,ESE,115,2.0,6.0,93,0.00,,,0.00,meteohub,2013-08-09 00:17:00,
2013-08-08 20:27:00,64.0,62.1,29.98,SSE,164,0.0,7.0,93,0.00,,,0.00,meteohub,2013-08-09 00:27:00,
2013-08-08 20:35:00,64.0,62.1,29.98,SE,134,1.0,7.0,93,0.00,,,0.00,meteohub,2013-08-09 00:35:00,
2013-08-08 20:40:00,64.0,62.1,29.99,SE,126,0.0,5.0,93,0.00,,,0.00,meteohub,2013-08-09 00:40:00,
2013-08-08 20:45:00,64.0,62.2,29.99,SE,126,0.0,3.0,94,0.00,,,0.00,meteohub,2013-08-09 00:45:00,
2013-08-08 20:51:00,64.0,62.2,29.99,SE,126,0.0,3.0,94,0.00,,,0.00,meteohub,2013-08-09 00:51:00,
2013-08-08 20:56:00,64.0,62.2,29.99,SE,126,0.0,3.0,94,0.00,,,0.00,meteohub,2013-08-09 00:56:00,
2013-08-08 21:01:00,64.0,62.2,29.99,SE,128,1.0,3.0,94,0.00,,,0.00,meteohub,2013-08-09 01:01:00,
2013-08-08 21:07:00,64.0,62.2,29.99,ESE,121,0.0,7.0,94,0.00,,,0.00,meteohub,2013-08-09 01:07:00,
2013-08-08 21:12:00,63.9,62.1,29.99,SSE,167,0.0,7.0,94,0.00,,,0.00,meteohub,2013-08-09 01:12:00,
2013-08-08 21:17:00,63.9,62.1,29.99,SE,140,1.0,7.0,94,0.00,,,0.00,meteohub,2013-08-09 01:17:00,
2013-08-08 21:22:00,63.9,62.1,29.99,ESE,121,4.0,7.0,94,0.00,,,0.00,meteohub,2013-08-09 01:22:00,
2013-08-08 21:27:00,63.9,62.1,29.99,ESE,123,0.0,4.0,94,0.00,,,0.00,meteohub,2013-08-09 01:27:00,
2013-08-08 21:32:00,63.9,62.1,29.99,ESE,120,5.0,5.0,94,0.00,,,0.00,meteohub,2013-08-09 01:32:00,
2013-08-08 21:37:00,63.7,61.9,29.99,ESE,121,4.0,5.0,94,0.00,,,0.00,meteohub,2013-08-09 01:37:00,
2013-08-08 21:42:00,63.7,61.9,29.99,SE,132,0.0,5.0,94,0.00,,,0.00,meteohub,2013-08-09 01:42:00,
2013-08-08 21:47:00,63.7,61.9,29.99,ESE,119,0.0,5.0,94,0.00,,,0.00,meteohub,2013-08-09 01:47:00,
2013-08-08 21:52:00,63.7,62.2,29.99,SE,132,0.0,5.0,95,0.00,,,0.00,meteohub,2013-08-09 01:52:00,
2013-08-08 21:57:00,63.7,62.2,29.99,SSE,157,0.0,3.0,95,0.00,,,0.00,meteohub,2013-08-09 01:57:00,
2013-08-08 22:03:00,63.7,62.2,29.99,SSW,201,0.0,3.0,95,0.00,,,0.00,meteohub,2013-08-09 02:03:00,
2013-08-08 22:08:00,63.7,62.2,29.99,SSE,167,0.0,3.0,95,0.00,,,0.00,meteohub,2013-08-09 02:08:00,
2013-08-08 22:13:00,63.5,62.1,30.00,SSE,150,0.0,3.0,95,0.00,,,0.00,meteohub,2013-08-09 02:13:00,
2013-08-08 22:19:00,63.5,62.1,29.99,SE,144,0.0,4.0,95,0.00,,,0.00,meteohub,2013-08-09 02:19:00,
2013-08-08 22:24:00,63.3,61.9,29.99,SE,144,0.0,4.0,95,0.00,,,0.00,meteohub,2013-08-09 02:24:00,
2013-08-08 22:29:00,63.3,61.9,29.99,SE,144,0.0,4.0,95,0.00,,,0.00,meteohub,2013-08-09 02:29:00,
2013-08-08 22:35:00,63.3,61.9,29.99,SSE,148,0.0,4.0,95,0.00,,,0.00,meteohub,2013-08-09 02:35:00,
2013-08-08 22:40:00,63.3,62.2,29.99,ESE,123,1.0,6.0,96,0.00,,,0.00,meteohub,2013-08-09 02:40:00,
2013-08-08 22:47:00,63.1,62.1,29.99,ESE,122,0.0,6.0,96,0.00,,,0.00,meteohub,2013-08-09 02:47:00,
2013-08-08 22:52:00,63.1,62.1,29.98,SE,126,0.0,6.0,96,0.00,,,0.00,meteohub,2013-08-09 02:52:00,
2013-08-08 22:57:00,63.1,62.1,29.99,SE,132,0.0,4.0,96,0.00,,,0.00,meteohub,2013-08-09 02:57:00,
2013-08-08 23:05:00,63.1,62.1,29.99,SE,132,0.0,3.0,96,0.00,,,0.00,meteohub,2013-08-09 03:05:00,
2013-08-08 23:10:00,63.1,62.1,29.99,SE,132,0.0,3.0,96,0.00,,,0.00,meteohub,2013-08-09 03:10:00,
2013-08-08 23:15:00,63.1,62.1,29.99,South,175,1.0,3.0,96,0.00,,,0.00,meteohub,2013-08-09 03:15:00,
2013-08-08 23:22:00,63.1,62.1,29.99,SE,128,2.0,3.0,96,0.00,,,0.00,meteohub,2013-08-09 03:22:00,
2013-08-08 23:27:00,63.1,62.1,29.99,SE,130,0.0,3.0,96,0.00,,,0.00,meteohub,2013-08-09 03:27:00,
2013-08-08 23:32:00,63.1,62.1,29.99,SE,129,0.0,3.0,96,0.00,,,0.00,meteohub,2013-08-09 03:32:00,
2013-08-08 23:37:00,63.1,62.1,29.98,SE,128,1.0,3.0,96,0.00,,,0.00,meteohub,2013-08-09 03:37:00,
2013-08-08 23:42:00,63.1,62.1,29.98,SE,145,2.0,3.0,96,0.00,,,0.00,meteohub,2013-08-09 03:42:00,
2013-08-08 23:47:00,63.1,62.1,29.98,SE,145,0.0,3.0,96,0.00,,,0.00,meteohub,2013-08-09 03:47:00,
2013-08-08 23:52:00,63.1,62.1,29.98,SE,137,1.0,2.0,96,0.00,,,0.00,meteohub,2013-08-09 03:52:00,
2013-08-08 23:57:00,63.1,62.1,29.97,SE,128,1.0,4.0,96,0.00,,,0.00,meteohub,2013-08-09 03:57:00,